GW3723 Weather Reports


time (UTC)temp
C
wind
direction
speed
KPH
gust
KPH
rain 1hr
cm
rain 24hr
cm
rain mn
cm
humidity
%
barometer
mb
20260507024006 13 306 0.0 4.8 0.00 0.23 0.23 97 1007.4
20260507023505 13 252 1.6 11.3 0.00 0.23 0.23 97 1007.5
20260507023019 13 267 3.2 11.3 0.00 0.23 0.23 97 1007.5
20260507022511 13 250 4.8 9.7 0.00 0.23 0.23 97 1007.6
20260507022005 13 301 3.2 9.7 0.00 0.23 0.23 97 1007.6
20260507021519 13 232 1.6 9.7 0.00 0.23 0.23 97 1007.5
20260507021003 13 261 3.2 9.7 0.00 0.23 0.23 97 1007.6
20260507020503 13 250 3.2 8.0 0.00 0.23 0.23 97 1007.8
20260507020004 13 271 3.2 11.3 0.00 0.23 0.23 97 1007.9
20260507015506 13 249 3.2 11.3 0.00 0.23 0.23 97 1007.7
20260507015003 13 179 1.6 6.4 0.00 0.23 0.23 97 1007.6
20260507014504 13 248 1.6 4.8 0.00 0.23 0.23 97 1007.7
20260507014002 13 259 1.6 6.4 0.00 0.23 0.23 97 1007.7
20260507013502 13 288 3.2 9.7 0.00 0.23 0.23 97 1007.6
20260507013008 13 213 1.6 9.7 0.00 0.23 0.23 97 1007.2
20260507012505 13 99 1.6 8.0 0.00 0.23 0.23 97 1007.3
20260507012003 13 225 1.6 14.5 0.00 0.23 0.23 97 1007.2
20260507011515 13 130 1.6 14.5 0.00 0.23 0.23 97 1007.4
20260507011005 13 229 3.2 8.0 0.00 0.23 0.23 97 1007.5
20260507010510 13 238 1.6 6.4 0.00 0.23 0.23 97 1007.4
20260507010007 13 242 1.6 6.4 0.00 0.23 0.23 97 1007.5
20260507005503 13 267 3.2 9.7 0.00 0.23 0.23 97 1007.5
20260507005007 13 263 1.6 9.7 0.00 0.23 0.23 97 1007.6
20260507004503 13 294 3.2 9.7 0.00 0.23 0.23 97 1007.6
20260507004003 13 201 1.6 11.3 0.00 0.23 0.23 97 1007.6
20260507003503 13 223 0.0 11.3 0.00 0.23 0.23 97 1007.7
20260507003007 13 244 1.6 6.4 0.00 0.23 0.23 97 1007.8
20260507002503 13 248 3.2 6.4 0.00 0.23 0.23 97 1007.7
20260507002002 13 267 3.2 6.4 0.00 0.23 0.23 97 1007.6
20260507001509 13 245 1.6 6.4 0.00 0.23 0.23 97 1007.6
20260507001004 13 246 3.2 6.4 0.00 0.23 0.23 97 1007.6
20260507000503 13 271 1.6 12.9 0.00 0.23 0.23 97 1007.5
20260507000011 13 238 4.8 12.9 0.00 0.23 0.23 97 1007.6
20260506235506 13 161 3.2 16.1 0.00 0.23 0.23 96 1007.4
20260506235002 13 271 3.2 16.1 0.00 0.23 0.23 96 1007.4
20260506234504 13 192 3.2 8.0 0.00 0.23 0.23 96 1007.4
20260506234006 13 246 3.2 8.0 0.00 0.23 0.23 96 1007.4
20260506233503 13 214 1.6 11.3 0.00 0.23 0.23 96 1007.3
20260506233005 13 248 4.8 11.3 0.00 0.23 0.23 96 1007.3
20260506232503 13 245 1.6 8.0 0.00 0.23 0.23 96 1007.3
20260506232002 13 301 3.2 8.0 0.00 0.23 0.23 96 1007.3
20260506231508 13 254 1.6 8.0 0.03 0.23 0.23 96 1007.3
20260506231003 13 253 3.2 8.0 0.03 0.23 0.23 96 1007.4
20260506230503 13 257 1.6 9.7 0.03 0.23 0.23 96 1007.4
20260506230013 13 261 4.8 9.7 0.03 0.23 0.23 96 1007.3
20260506225503 13 227 3.2 6.4 0.03 0.23 0.23 96 1007.2
20260506225005 13 227 1.6 12.9 0.03 0.23 0.23 96 1007.2
20260506224514 13 231 6.4 12.9 0.03 0.23 0.23 95 1007.2
20260506224006 13 254 1.6 14.5 0.03 0.23 0.23 95 1007.2
20260506223501 13 246 4.8 12.9 0.03 0.23 0.23 95 1007.1
20260506223017 13 220 3.2 6.4 0.05 0.23 0.23 95 1007.2
20260506222506 13 188 3.2 9.7 0.05 0.23 0.23 95 1007.2
20260506222006 13 255 1.6 9.7 0.05 0.23 0.23 95 1007.1
20260506221505 13 54 1.6 12.9 0.05 0.20 0.20 95 1007.1
20260506221003 13 298 4.8 12.9 0.08 0.20 0.20 95 1007.1
20260506220503 13 204 1.6 14.5 0.08 0.20 0.20 95 1007.0
20260506220014 13 273 4.8 14.5 0.08 0.20 0.20 95 1007.1
20260506215505 13 269 4.8 17.7 0.08 0.20 0.20 95 1007.1
20260506215009 13 219 4.8 17.7 0.08 0.20 0.20 95 1007.0
20260506214502 13 252 1.6 14.5 0.08 0.20 0.20 95 1007.1
20260506214002 13 270 3.2 14.5 0.08 0.20 0.20 95 1007.1
20260506213511 13 238 3.2 14.5 0.08 0.20 0.20 95 1007.2
20260506213027 13 237 4.8 12.9 0.05 0.18 0.18 95 1007.2
20260506212502 13 265 1.6 6.4 0.05 0.18 0.18 95 1007.3
20260506212006 13 219 1.6 4.8 0.05 0.18 0.18 95 1007.4
20260506211521 14 313 1.6 12.9 0.03 0.15 0.15 94 1007.4
20260506211007 14 199 6.4 11.3 0.00 0.13 0.13 94 1007.5
20260506210503 14 173 1.6 12.9 0.00 0.13 0.13 94 1007.5
20260506210006 14 86 1.6 12.9 0.00 0.13 0.13 94 1007.5
20260506205502 14 264 0.0 8.0 0.00 0.13 0.13 94 1007.5
20260506205002 14 190 1.6 4.8 0.00 0.13 0.13 94 1007.6
20260506204510 14 202 1.6 8.0 0.00 0.13 0.13 94 1007.7
20260506204013 14 252 1.6 14.5 0.00 0.13 0.13 94 1007.6
20260506203508 14 209 1.6 14.5 0.00 0.13 0.13 94 1007.7
20260506203016 14 114 0.0 12.9 0.00 0.13 0.13 94 1007.8
20260506202507 14 286 6.4 12.9 0.00 0.13 0.13 94 1007.8
20260506202010 14 228 1.6 11.3 0.03 0.13 0.13 94 1007.8
20260506201508 14 211 1.6 11.3 0.03 0.13 0.13 94 1007.8
20260506201004 14 259 1.6 6.4 0.03 0.13 0.13 94 1007.8
20260506200502 14 273 1.6 11.3 0.03 0.13 0.13 94 1007.9
20260506200006 14 266 4.8 9.7 0.05 0.13 0.13 94 1007.9
20260506195503 14 70 1.6 8.0 0.08 0.13 0.13 94 1007.9
20260506195002 14 316 1.6 12.9 0.10 0.13 0.13 94 1008.1
20260506194502 14 348 1.6 14.5 0.10 0.13 0.13 93 1008.1
20260506194002 14 169 3.2 14.5 0.13 0.13 0.13 93 1008.2
20260506193501 14 256 4.8 14.5 0.13 0.13 0.13 93 1008.3
20260506193001 14 167 3.2 12.9 0.13 0.13 0.13 93 1008.2
20260506192503 14 211 3.2 9.7 0.13 0.13 0.13 93 1008.2
20260506192003 14 240 1.6 9.7 0.10 0.10 0.10 93 1008.5
20260506191506 14 177 4.8 9.7 0.10 0.10 0.10 92 1008.4
20260506191003 14 277 3.2 9.7 0.10 0.10 0.10 92 1008.5
20260506190502 14 304 1.6 11.3 0.10 0.10 0.10 91 1008.5
20260506190007 14 290 3.2 12.9 0.08 0.08 0.08 91 1008.6
20260506185502 14 281 4.8 12.9 0.05 0.05 0.05 90 1008.6
20260506185003 15 34 0.0 17.7 0.03 0.03 0.03 89 1008.4
20260506184507 15 219 3.2 17.7 0.03 0.03 0.03 89 1008.4
20260506184004 15 291 1.6 9.7 0.00 0.00 0.00 88 1008.5
20260506183504 15 175 1.6 14.5 0.00 0.00 0.00 88 1008.7
20260506183006 15 77 3.2 19.3 0.00 0.00 0.00 87 1008.6
20260506182506 15 324 4.8 19.3 0.00 0.00 0.00 86 1008.9
20260506182003 15 300 3.2 16.1 0.00 0.00 0.00 85 1009.0
20260506181503 15 165 3.2 19.3 0.00 0.00 0.00 85 1009.1
20260506181004 15 360 4.8 19.3 0.00 0.00 0.00 83 1009.4
20260506180503 16 360 6.4 16.1 0.00 0.00 0.00 81 1009.5
20260506180007 16 315 3.2 14.5 0.00 0.00 0.00 81 1009.4
20260506175503 16 267 3.2 12.9 0.00 0.00 0.00 80 1009.4
20260506175002 16 101 1.6 16.1 0.00 0.00 0.00 80 1009.5
20260506174504 16 233 4.8 16.1 0.00 0.00 0.00 79 1009.6
20260506174003 16 257 4.8 12.9 0.00 0.00 0.00 78 1009.7
20260506173504 16 310 3.2 12.9 0.00 0.00 0.00 78 1009.8
20260506173009 17 254 3.2 17.7 0.00 0.00 0.00 77 1009.8
20260506172504 17 242 4.8 17.7 0.00 0.00 0.00 77 1009.8
20260506172004 17 279 8.0 17.7 0.00 0.00 0.00 76 1009.7
20260506171521 17 258 4.8 16.1 0.00 0.00 0.00 76 1009.8
20260506171003 17 360 8.0 16.1 0.00 0.00 0.00 75 1009.8
20260506170503 18 240 9.7 20.9 0.00 0.00 0.00 74 1009.9
20260506170003 18 185 4.8 20.9 0.00 0.00 0.00 73 1009.8
20260506165503 18 260 4.8 9.7 0.00 0.00 0.00 74 1009.8
20260506165003 18 229 4.8 12.9 0.00 0.00 0.00 73 1009.9
20260506164504 18 22 4.8 16.1 0.00 0.00 0.00 73 1009.8
20260506164003 18 228 6.4 24.1 0.00 0.00 0.00 72 1009.7
20260506163505 18 213 8.0 24.1 0.00 0.00 0.00 73 1009.8
20260506163004 18 202 3.2 12.9 0.00 0.00 0.00 74 1009.8
20260506162503 18 230 3.2 19.3 0.00 0.00 0.00 74 1009.9
20260506162008 18 260 8.0 19.3 0.00 0.00 0.00 73 1009.9
20260506161504 18 250 6.4 29.0 0.00 0.00 0.00 74 1010.1
20260506161003 18 251 4.8 29.0 0.00 0.00 0.00 73 1010.2
20260506160503 18 241 8.0 20.9 0.00 0.00 0.00 72 1010.3
20260506160023 18 198 8.0 19.3 0.00 0.00 0.00 72 1010.3
20260506155504 18 170 8.0 19.3 0.00 0.00 0.00 71 1010.3
20260506155003 19 234 6.4 14.5 0.00 0.00 0.00 69 1010.4
20260506154503 19 309 3.2 17.7 0.00 0.00 0.00 69 1010.3
20260506154003 19 222 1.6 17.7 0.00 0.00 0.00 70 1010.3
20260506153502 20 325 4.8 19.3 0.00 0.00 0.00 69 1010.4
20260506153006 20 273 4.8 19.3 0.00 0.00 0.00 70 1010.3
20260506152503 20 245 4.8 17.7 0.00 0.00 0.00 70 1010.4
20260506152004 20 263 9.7 17.7 0.00 0.00 0.00 68 1010.4
20260506151508 20 303 6.4 25.7 0.00 0.00 0.00 70 1010.5
20260506151004 20 247 4.8 25.7 0.00 0.00 0.00 69 1010.4
20260506150511 19 255 6.4 24.1 0.00 0.00 0.00 70 1010.6
20260506150007 19 282 8.0 24.1 0.00 0.00 0.00 71 1010.5
20260506145504 19 292 11.3 17.7 0.00 0.00 0.00 72 1010.6
20260506145012 18 269 6.4 17.7 0.00 0.00 0.00 72 1010.6
20260506144505 18 291 4.8 22.5 0.00 0.00 0.00 72 1010.7
20260506144002 18 244 9.7 22.5 0.00 0.00 0.00 72 1010.7
20260506143502 18 292 4.8 32.2 0.00 0.00 0.00 72 1010.7
20260506143012 18 297 9.7 24.1 0.00 0.00 0.00 71 1010.6
20260506142503 18 301 6.4 19.3 0.00 0.00 0.00 72 1010.8
20260506142003 18 198 8.0 16.1 0.00 0.00 0.00 72 1010.9
20260506141509 18 228 6.4 17.7 0.00 0.00 0.00 73 1010.8
20260506141004 18 220 4.8 17.7 0.00 0.00 0.00 71 1010.8
20260506140503 19 250 8.0 16.1 0.00 0.00 0.00 71 1010.7
20260506140013 18 265 4.8 16.1 0.00 0.00 0.00 74 1010.7
20260506135507 18 215 3.2 17.7 0.00 0.00 0.00 75 1010.6
20260506135004 18 241 8.0 19.3 0.00 0.00 0.00 74 1010.6
20260506134514 18 255 9.7 19.3 0.00 0.00 0.00 74 1010.6
20260506134010 18 249 4.8 19.3 0.00 0.00 0.00 75 1010.6
20260506133502 17 196 8.0 16.1 0.00 0.00 0.00 75 1010.7
20260506133007 17 243 6.4 20.9 0.00 0.00 0.00 77 1010.6
20260506132504 17 273 6.4 20.9 0.00 0.00 0.00 76 1010.7
20260506132008 17 258 8.0 20.9 0.00 0.00 0.00 76 1010.8
20260506131513 17 273 6.4 20.9 0.00 0.00 0.00 76 1010.8
20260506131002 17 281 3.2 19.3 0.00 0.00 0.00 78 1010.8
20260506130503 17 200 8.0 24.1 0.00 0.00 0.00 77 1011.0
20260506130005 17 278 8.0 24.1 0.00 0.00 0.00 78 1011.1
20260506125505 17 217 9.7 20.9 0.00 0.00 0.00 77 1011.2
20260506125005 17 257 9.7 22.5 0.00 0.00 0.00 77 1011.1
20260506124514 17 207 4.8 22.5 0.00 0.00 0.00 79 1011.0
20260506124002 16 261 8.0 20.9 0.00 0.00 0.00 79 1011.0
20260506123506 16 269 6.4 20.9 0.00 0.00 0.00 80 1011.0
20260506123020 16 298 4.8 17.7 0.00 0.00 0.00 82 1011.0
20260506122509 16 241 6.4 17.7 0.00 0.00 0.00 82 1011.0
20260506122012 16 294 8.0 19.3 0.00 0.00 0.00 82 1011.0
20260506121507 16 261 4.8 19.3 0.00 0.00 0.00 82 1011.0
20260506121003 16 257 3.2 16.1 0.00 0.00 0.00 82 1010.9
20260506120507 16 173 4.8 16.1 0.00 0.00 0.00 83 1011.0
20260506120008 16 250 6.4 14.5 0.00 0.00 0.00 83 1010.9
20260506115503 15 226 4.8 14.5 0.00 0.00 0.00 84 1011.1
20260506115006 15 240 8.0 25.7 0.00 0.00 0.00 85 1010.9
20260506114509 15 227 4.8 25.7 0.00 0.00 0.00 85 1011.0
20260506114005 15 267 3.2 12.9 0.00 0.00 0.00 86 1011.3
20260506113505 15 256 3.2 14.5 0.00 0.00 0.00 86 1011.2
20260506113008 15 265 4.8 14.5 0.00 0.00 0.00 87 1011.3
20260506112507 15 215 6.4 11.3 0.00 0.00 0.00 87 1011.3
20260506112009 14 360 1.6 9.7 0.00 0.00 0.00 88 1011.3
20260506111524 14 360 3.2 17.7 0.00 0.00 0.00 88 1011.1
20260506111004 14 242 8.0 19.3 0.00 0.00 0.00 89 1011.2
20260506110511 13 269 8.0 19.3 0.00 0.00 0.00 90 1011.4
20260506110506 13 213 8.0 19.3 0.00 0.00 0.00 90 1011.4
20260506110007 13 265 3.2 12.9 0.00 0.00 0.00 90 1011.3
20260506105504 13 269 1.6 9.7 0.00 0.00 0.00 90 1011.2
20260506105005 13 271 4.8 8.0 0.00 0.00 0.00 90 1011.3
20260506104502 13 209 1.6 6.4 0.00 0.00 0.00 90 1011.3
20260506104002 13 185 1.6 8.0 0.00 0.00 0.00 90 1011.2
20260506103502 13 284 3.2 9.7 0.00 0.00 0.00 90 1011.3
20260506103006 13 221 3.2 9.7 0.00 0.00 0.00 90 1011.1
20260506102502 13 38 1.6 8.0 0.00 0.00 0.00 90 1011.1
20260506102002 13 296 3.2 8.0 0.00 0.00 0.00 89 1010.9
20260506101503 13 72 1.6 6.4 0.00 0.00 0.00 89 1010.9
20260506101006 13 225 1.6 8.0 0.00 0.00 0.00 89 1010.9
20260506100503 13 237 3.2 9.7 0.00 0.00 0.00 89 1010.8
20260506100007 13 277 3.2 9.7 0.00 0.00 0.00 89 1010.8
20260506095503 13 275 0.0 4.8 0.00 0.00 0.00 88 1010.8
20260506095002 13 247 1.6 12.9 0.00 0.00 0.00 88 1010.9
20260506094514 13 250 3.2 12.9 0.00 0.00 0.00 88 1010.9
20260506094004 13 231 3.2 14.5 0.00 0.00 0.00 88 1010.9
20260506093502 13 252 4.8 14.5 0.00 0.00 0.00 88 1010.9
20260506093004 13 284 3.2 11.3 0.00 0.00 0.00 88 1010.9
20260506092503 13 263 3.2 14.5 0.00 0.00 0.00 87 1010.9
20260506092004 13 194 4.8 16.1 0.00 0.00 0.00 88 1010.8
20260506091505 13 280 3.2 16.1 0.00 0.00 0.00 87 1010.9
20260506091007 13 136 1.6 6.4 0.00 0.00 0.00 87 1010.9
20260506090504 13 295 1.6 6.4 0.00 0.00 0.00 87 1011.0
20260506090007 13 218 1.6 12.9 0.00 0.00 0.00 87 1011.1
20260506085503 13 161 3.2 16.1 0.00 0.00 0.00 87 1011.0
20260506085004 13 252 3.2 16.1 0.00 0.00 0.00 86 1011.1
20260506084516 13 283 1.6 6.4 0.00 0.00 0.00 86 1011.1
20260506084003 13 226 1.6 6.4 0.00 0.00 0.00 86 1011.0
20260506083504 13 243 1.6 6.4 0.00 0.00 0.00 86 1011.0
20260506083013 14 245 1.6 11.3 0.00 0.00 0.00 85 1011.1
20260506082503 14 34 3.2 12.9 0.00 0.00 0.00 85 1011.2
20260506082003 14 231 1.6 12.9 0.00 0.00 0.00 85 1011.2
20260506081507 14 264 1.6 11.3 0.00 0.00 0.00 85 1011.2
20260506081003 14 252 3.2 12.9 0.00 0.00 0.00 85 1011.2
20260506080503 14 268 1.6 14.5 0.00 0.00 0.00 85 1011.3
20260506073503 14 249 1.6 12.9 0.00 0.00 0.00 84 1011.2
20260506073004 14 284 3.2 12.9 0.00 0.00 0.00 84 1011.2
20260506072508 14 23 3.2 12.9 0.00 0.00 0.00 84 1011.1
20260506072008 14 269 4.8 16.1 0.00 0.00 0.00 84 1011.2
20260506071517 14 189 6.4 16.1 0.00 0.00 0.00 83 1011.2
20260506071004 14 190 8.0 22.5 0.00 0.00 0.00 83 1011.1
20260506070503 14 292 6.4 22.5 0.00 0.00 0.00 83 1011.1
20260506062509 15 263 4.8 19.3 0.00 0.00 0.00 82 1011.0
20260506062002 15 254 6.4 19.3 0.00 0.00 0.00 82 1011.2
20260506061507 15 253 6.4 12.9 0.00 0.00 0.00 81 1011.1
20260506061008 15 245 4.8 16.1 0.00 0.00 0.00 81 1011.1
20260506060507 15 198 4.8 16.1 0.00 0.00 0.00 81 1011.2
20260506051009 15 224 9.7 16.1 0.00 0.00 0.00 79 1011.7
20260506050504 15 271 8.0 19.3 0.00 0.00 0.00 78 1011.7
20260506045005 15 207 6.4 14.5 0.00 0.00 0.00 78 1011.7
20260506044511 15 269 8.0 16.1 0.00 0.00 0.00 77 1011.8
20260506044011 15 360 8.0 16.1 0.00 0.00 0.00 77 1011.7
20260506043509 15 252 6.4 17.7 0.00 0.00 0.00 77 1011.8
20260506043006 16 255 8.0 17.7 0.00 0.00 0.00 77 1011.8
20260506042504 15 278 8.0 17.7 0.00 0.00 0.00 77 1011.8
20260506042007 16 360 4.8 22.5 0.00 0.00 0.00 77 1011.8
20260506041517 16 360 4.8 22.5 0.00 0.00 0.00 76 1011.8
20260506041004 16 360 3.2 16.1 0.00 0.00 0.00 76 1011.8
20260506040508 16 360 6.4 16.1 0.00 0.00 0.00 76 1011.9
20260506040016 16 360 6.4 16.1 0.00 0.00 0.00 75 1011.8
20260506035504 16 360 8.0 16.1 0.00 0.00 0.00 75 1011.8
20260506035008 16 360 6.4 16.1 0.00 0.00 0.00 75 1011.8
20260506034519 16 269 3.2 32.2 0.00 0.00 0.00 74 1011.7
20260506034008 16 277 9.7 32.2 0.00 0.00 0.00 74 1011.7
20260506033506 16 257 4.8 14.5 0.00 0.00 0.00 74 1011.7
20260506033016 16 280 4.8 19.3 0.00 0.00 0.00 73 1011.7
20260506032513 16 236 8.0 19.3 0.00 0.00 0.00 73 1011.7
20260506032004 16 269 4.8 14.5 0.00 0.00 0.00 72 1011.7
20260506031512 16 284 3.2 17.7 0.00 0.00 0.00 72 1011.8
20260506031004 16 274 4.8 17.7 0.00 0.00 0.00 72 1011.8
20260506030508 16 288 3.2 14.5 0.00 0.00 0.00 72 1011.7
20260506030012 16 275 4.8 14.5 0.00 0.00 0.00 71 1011.7
20260506025507 16 267 8.0 14.5 0.00 0.00 0.00 72 1011.7
20260506025009 16 275 3.2 19.3 0.00 0.00 0.00 71 1011.7
20260506024509 16 245 8.0 19.3 0.00 0.00 0.00 71 1011.8